Regional Weather Roundup
Issued by NWS

Home | Current Version | Previous Version | Text Only | Print | Product List | Glossary On
Versions: 1 2 3 4 5 6 7 8 9 10 11 12 13 14 15 16 17 18 19 20 21 22 23 24 25 26 27 28 29 30 31 32 33 34 35 36 37 38 39 40 41 42 43 44 45 46 47 48 49 50
000
ASUS43 KLSX 230007
RWRMO

WEATHER SUMMARY FOR MISSOURI
NATIONAL WEATHER SERVICE SPRINGFIELD MO
600 PM CST WED NOV 22 2017

NOTE: "FAIR" INDICATES FEW OR NO CLOUDS BELOW 12,000 FEET WITH NO
       SIGNIFICANT WEATHER AND/OR OBSTRUCTIONS TO VISIBILITY.
       CURRENT SKY AND/OR WEATHER CONDITIONS ARE NOT AVAILABLE FOR
       CHILLICOTHE AND FARMINGTON.

MOZ001>031-035>038-043-044-053-054-230100-
...NORTHERN AND WESTERN MISSOURI...

CITY           SKY/WX    TMP DP  RH WIND       PRES   REMARKS
KANSAS CTY INT PTCLDY    32  18  56 S8        30.20F WCI  25
6HR MIN TEMP:  31; 6HR MAX TEMP:  41;

KANSAS C DTWN  CLEAR     41  16  36 S7        30.22F
6HR MIN TEMP:  36; 6HR MAX TEMP:  44;

LEE`S SUMMIT   CLOUDY    38  18  44 S6        30.23F
6HR MIN TEMP:  36; 6HR MAX TEMP:  42;

ST JOSEPH      CLOUDY    35  17  47 S8        30.20F WCI  29
6HR MIN TEMP:  34; 6HR MAX TEMP:  42;

CHILLICOTHE      N/A     35  15  44 S5        30.25F
6HR MIN TEMP:  34; 6HR MAX TEMP:  41;

KIRKSVILLE     CLOUDY    33  14  45 S3        30.24R
6HR MIN TEMP:  31; 6HR MAX TEMP:  41;


$$
MOZ066>068-077>081-088>096-101>105-230100-
...SOUTHWEST MISSOURI...

CITY           SKY/WX    TMP DP  RH WIND       PRES   REMARKS
SPRINGFIELD    CLOUDY    34  20  56 S3        30.21F
6HR MIN TEMP:  33; 6HR MAX TEMP:  46;

JOPLIN         CLOUDY    39  22  50 VRB3      30.26S
6HR MIN TEMP:  38; 6HR MAX TEMP:  46;

BRANSON        PTCLDY    34  19  55 CALM      30.25F

$$
MOZ032>034-039>042-045>050-055>058-069>072-230100-
...CENTRAL MISSOURI...

CITY           SKY/WX    TMP DP  RH WIND       PRES   REMARKS
COLUMBIA       PTCLDY    34  14  43 SE3       30.25F
6HR MIN TEMP:  33; 6HR MAX TEMP:  42;

JEFFERSON CITY PTCLDY    35  16  45 E6        30.25F
6HR MIN TEMP:  35; 6HR MAX TEMP:  43;

ROLLA          CLOUDY    32  16  51 E3        30.25F
6HR MIN TEMP:  31; 6HR MAX TEMP:  42;

SEDALIA        CLOUDY    35  17  47 W3        30.27R
6HR MIN TEMP:  35; 6HR MAX TEMP:  43;

WHITEMAN AFB   CLOUDY    35  16  44 CALM      30.22R
WARRENSBURG    CLOUDY    36  18  48 CALM      30.25R
OSAGE BEACH    CLOUDY    35  13  40 CALM      30.25F

$$
MOZ051-052-059>065-230100-
...EAST CENTRAL MISSOURI...

CITY           SKY/WX    TMP DP  RH WIND       PRES   REMARKS
ST LOUIS INTL  MOCLDY    35  19  52 CALM      30.29S
6HR MIN TEMP:  34; 6HR MAX TEMP:  40;

SPIRIT OF STL  MOCLDY    32  21  64 CALM      30.29F
6HR MIN TEMP:  31; 6HR MAX TEMP:  41;

ST CHARLES     PTCLDY    35  17  47 CALM      30.29F HAZE
6HR MIN TEMP:  35; 6HR MAX TEMP:  41;


$$
MOZ072>076-082>087-097>100-106>115-230100-
...SOUTH CENTRAL AND SOUTHEAST MISSOURI...

CITY           SKY/WX    TMP DP  RH WIND       PRES   REMARKS
CAPE GIRARDEAU CLEAR     34  20  56 N3        30.29S
6HR MIN TEMP:  34; 6HR MAX TEMP:  43;

FARMINGTON     CLEAR     32  19  58 N5        30.27S WCI  27
6HR MIN TEMP:  31; 6HR MAX TEMP:  42;

POPLAR BLUFF   CLEAR     34  24  67 E3        30.28S
6HR MIN TEMP:  34; 6HR MAX TEMP:  47;

WEST PLAINS    CLEAR     36  15  42 CALM      30.25S
6HR MIN TEMP:  35; 6HR MAX TEMP:  49;


$$



USA.gov is the U.S. government's official web portal to all federal, state and local government web resources and services.